sat.trackr.live / text

‹ back to catalog

CREW DRAGON 12

NORAD 67796 · 2026-031A

PAYLOAD ACTIVE UNKNOWN

§ Identity

Operator
Country
US
Launch date
2026-02-13
Launch site
AFETR
Launch vehicle
Mass (kg)
RCS (m²)

Purposes: station

External: N2YO · Heavens-Above · Gunter

§ Orbital elements

Epoch: 2026-09-19T19:40:49.537920Z

Period
92.95 min
Inclination
51.6308°
Eccentricity
0.0004806
Mean motion
15.49182630 rev/d
Perigee alt
415.8 km
Apogee alt
422.4 km
Semi-major
6,797.3 km
B*
1.2748e-4
RAAN
191.7362°
Arg perigee
159.4528°
Mean anomaly
200.6655°
Rev number
58,685

§ Raw data

CREW DRAGON 121 67796U 26031A   26262.82001780  .00006624  00000+0  12748-3 0  99932 67796  51.6308 191.7362 0004806 159.4528 200.6655 15.49182630586856

JSON: /api/v1/satellites/67796 · /tle

For live sub-satellite position, see the globe view (requires WebGL).

§ Visibility from observer

Set your observer location to see the next 7 days of passes ≥ 10°. The values pass through the URL so the page stays shareable.

No JS? Fill the form by hand. The geolocation button needs JavaScript.